Weather in Mezhozernyy

Russia / Chelyabinsk Oblast     54°08′43″N   59°22′38″E
temp.,
°C
wind,
m/s
gust,
m/s
humid.,
%
clouds,
%
prec.,
mm/h
press.,
hPa
HPBL,
m
20 may, fri
fri2023:00+7sw61185100 0.7 1006791
02:00+5wsw6118832 0.4 1007519
05:00+3w6118310 0.4 1008431
08:00+5w5868100 0.0 10101243
11:00+9w4650100 0.0 10101626
14:00+11sw4539100 0.0 10092039
17:00+11sw4441100 0.0 10091800
20:00+9ese1157100 0.0 100614
21 may, sat
sat2123:00+5s4790100 0.4 1006360
02:00+3ene4998100 5.8 1002503
05:00+2nne51399100 11.6 1000508
08:00+2ne71598100 2.6 997675
11:00+2nne61299100 5.8 996693
14:00+2n51299100 1.8 995568
17:00+2nnw4899100 2.9 995614
20:00+2nw51098100 2.4 995631
22 may, sun
sun2223:00+2nnw61398100 4.8 995794
02:00+2nw61298100 2.3 994840
05:00+2wnw61294100 3.2 995678
08:00+3wnw71284100 0.0 996792
11:00+5wnw81073100 0.0 9971234
14:00+6w6868100 0.1 9981768
17:00+6w6971100 0.8 10001331
20:00+4wsw58786 0.2 1001430
23 may, mon
mon2323:00+1ssw3108998 0.2 1002229
02:00+3sw61094100 0.0 1001647
05:00+3ssw3792100 0.1 1000402
08:00+4s4693100 0.0 1000543
11:00+5ssw4594100 0.2 999672
14:00+6ssw458578 0.2 1000682
17:00+8wsw567573 0.4 10011112
20:00+7sw368258 0.2 1002289
24 may, tue
tue2423:00+4sw249194 0.3 100581
02:00+5sw258893 0.0 1006123
05:00+4s339133 0.0 100747
08:00+8ssw358295 0.0 1008448
11:00+11ssw576888 0.3 10081354
14:00+12ssw466364 0.2 10081324
17:00+12s3468100 0.3 1008782
20:00+9ene2397100 1.1 100888